Change the Weather History Date:

Tuesday, January 31, 2012

  Actual Average Record
Temperature  
Mean Temperature 50 °F 35 °F  
Max Temperature 64 °F 47 °F 76 °F (1911)
Min Temperature 35 °F 23 °F -6 °F (1979)
Degree Days  
Heating Degree Days 16 30  
Month to date heating degree days 976  
Since 1 July heating degree days 2777  
Cooling Degree Days 0 0  
Month to date cooling degree days 0  
Year to date cooling degree days 0  
Moisture  
Dew Point 32 °F    
Average Humidity 59    
Maximum Humidity 100    
Minimum Humidity 23    
Precipitation  
Precipitation 0.00 in 0.03 in 0.82 in (1959)
Month to date precipitation 0.71  
Year to date precipitation 0.71  
Snow  
Snow 0.00 in 0.10 in - ()
Month to date snowfall 3.3  
Since 1 July snowfall 6.2  
Snow Depth -    
Sea Level Pressure  
Sea Level Pressure 29.94 in    
Wind  
Wind Speed 8 mph (North)    
Max Wind Speed 17 mph    
Max Gust Speed 28 mph    
T = Trace of Precipitation, MM = Missing Value Source: NWS Daily Summary

Daily Weather History Graph

Daily Weather History Graph

Search for Another Location

Airport or City:

Trip Planner

Search our weather history database for the weather conditions in past years. The results will help you decide how hot, cold, wet, or windy it might be!

Date:

Astronomy

Jan. 31, 2012 Rise Set
Actual Time 7:38 AM CST 5:57 PM CST
Civil Twilight 7:10 AM CST 6:24 PM CST
Nautical Twilight 6:39 AM CST 6:56 PM CST
Astronomical Twilight 6:08 AM CST 7:26 PM CST
Moon 11:49 AM CST (1/31) 1:27 AM CST (1/31)
Length of Visible Light 11h 13m
Length of Day
10h 18m
First Quarter, 55% of the Moon is Illuminated
Jan 31
First Quarter
Feb 7
Full
Feb 14
Last Quarter
Feb 21
New
Feb 29
First Quarter

Hourly Weather History & Observations

Time (CST) Temp. Windchill Dew Point Humidity Pressure Visibility Wind Dir Wind Speed Gust Speed Precip Events Conditions
12:56 AM 48.9 °F - 43.0 °F 80% 29.81 in - SSE 8.1 mph - N/A   Unknown
1:56 AM 48.9 °F - 44.1 °F 83% 29.79 in - South 5.8 mph - N/A   Unknown
2:56 AM 50.0 °F - 45.0 °F 83% 29.78 in - South 8.1 mph - N/A   Unknown
3:56 AM 48.0 °F - 44.1 °F 86% 29.78 in - South 6.9 mph - N/A   Unknown
4:56 AM 48.0 °F - 45.0 °F 89% 29.77 in - SSE 9.2 mph - N/A   Unknown
5:56 AM 42.1 °F - 41.0 °F 96% 29.81 in - Calm Calm - N/A   Unknown
6:56 AM 36.0 °F 31.1 °F 36.0 °F 100% 29.84 in - North 5.8 mph - N/A   Unknown
7:56 AM 35.1 °F 30.1 °F 35.1 °F 100% 29.87 in - North 5.8 mph - N/A   Unknown
8:56 AM 37.9 °F 32.1 °F 34.0 °F 86% 29.91 in - NNW 8.1 mph - N/A   Unknown
9:56 AM 51.1 °F - 34.0 °F 52% 29.91 in - North 11.5 mph - N/A   Unknown
10:56 AM 57.0 °F - 27.0 °F 32% 29.95 in - North 16.1 mph 27.6 mph N/A   Unknown
11:56 AM 60.1 °F - 28.0 °F 30% 29.95 in - North 17.3 mph 25.3 mph N/A   Unknown
12:56 PM 61.0 °F - 27.0 °F 27% 29.94 in - North 15.0 mph - N/A   Unknown
1:56 PM 63.0 °F - 28.0 °F 27% 29.94 in - North 13.8 mph - N/A   Unknown
2:56 PM 64.9 °F - 26.1 °F 23% 29.94 in - North 17.3 mph - N/A   Unknown
3:56 PM 64.0 °F - 26.1 °F 24% 29.97 in - North 11.5 mph - N/A   Unknown
4:56 PM 62.1 °F - 25.0 °F 24% 29.99 in - NNE 10.4 mph - N/A   Unknown
5:56 PM 54.0 °F - 26.1 °F 34% 30.03 in - North 3.5 mph - N/A   Unknown
6:56 PM 48.9 °F - 27.0 °F 43% 30.05 in - North 5.8 mph - N/A   Unknown
7:56 PM 43.0 °F 40.3 °F 28.0 °F 56% 30.09 in - North 4.6 mph - N/A   Unknown
8:56 PM 43.0 °F 41.3 °F 27.0 °F 53% 30.11 in - North 3.5 mph - N/A   Unknown
9:56 PM 41.0 °F 39.0 °F 27.0 °F 57% 30.10 in - NNW 3.5 mph - N/A   Unknown
10:56 PM 39.9 °F 36.7 °F 27.0 °F 60% 30.09 in - NNW 4.6 mph - N/A   Unknown
11:56 PM 39.9 °F 37.8 °F 27.0 °F 60% 30.11 in - West 3.5 mph - N/A   Unknown